QPF
0.00 0.00 0.00 0.00 0.00 0.00 0.00 0.00 0.00 0.00 0.00 0.00 0.00 0.00 0.00 0.00 0.00 0.00 0.00 0.00 0.00 0.00 0.00 0.00 0.00 0.00 0.00 0.00 0.00 0.00 0.00 0.00 0.00 0.00 0.00 0.00 0.00 0.00 0.00 0.00 0.00 0.00 0.00 0.00 0.00 0.00 0.00
0.00 0.00 0.00 0.00 0.00 0.00 0.00 0.00 0.00 0.00 0.00 0.00 0.00 0.00 0.00 0.00 0.00 0.00 0.00 0.00 0.00 0.00 0.00 0.00 0.00 0.00 0.00 0.00 0.00 0.00 0.00 0.00 0.00 0.00 0.00 0.00 0.00 0.00 0.00 0.00 0.00 0.00 0.00 0.00 0.00 0.00 0.00
0.00 0.00 0.00 0.00 0.00 0.00 0.00 0.00 0.00 0.00 0.00 0.00 0.00 0.00 0.00 0.00 0.00 0.00 0.00 0.00 0.00 0.00 0.00 0.00 0.00 0.00 0.00 0.00 0.00 0.00 0.00 0.00 0.00 0.00 0.00 0.00 0.00 0.00 0.00 0.00 0.00 0.00 0.00 0.00 0.00 0.00 0.00
0.00 0.00 0.00 0.00 0.00 0.00 0.00 0.00 0.00 0.00 0.00 0.00 0.00 0.00 0.00 0.00 0.00 0.00 0.00 0.00 0.00 0.00 0.00 0.00 0.00 0.00 0.00 0.00 0.00 0.00 0.00 0.00 0.00 0.00 0.00 0.00 0.00 0.00 0.00 0.00 0.00 0.00 0.00 0.00 0.00 0.00 0.00
0.00 0.00 0.00 0.00 0.00 0.00 0.00 0.00 0.00 0.00 0.00 0.00 0.00 0.00 0.00 0.00 0.00 0.00 0.00 0.00 0.00 0.00 0.00 0.00 0.00 0.00 0.00 0.00 0.00 0.00 0.00 0.00 0.00 0.00 0.00 0.00 0.00 0.00 0.00 0.00 0.00 0.00 0.00 0.00 0.00 0.00 0.00
0.00 0.00 0.00 0.00 0.00 0.00 0.00 0.00 0.00 0.00 0.00 0.00 0.00 0.00 0.00 0.00 0.00 0.00 0.00 0.00 0.00 0.00 0.00 0.00 0.00 0.00 0.00 0.00 0.00 0.00 0.00 0.00 0.00 0.00 0.00 0.00 0.00 0.00 0.00 0.00 0.00 0.00 0.00 0.00 0.00 0.00 0.00
0.00 0.00 0.00 0.00 0.00 0.00 0.00 0.00 0.00 0.00 0.00 0.00 0.00 0.00 0.00 0.00 0.00 0.00 0.00 0.00 0.00 0.00 0.00 0.00 0.00 0.00 0.00 0.00 0.00 0.00 0.00 0.00 0.00 0.00 0.00 0.00 0.00 0.00 0.00 0.00 0.00 0.00 0.00 0.00 0.00 0.00 0.00
0.00 0.00 0.00 0.00 0.00 0.00 0.00 0.00 0.00 0.00 0.00 0.00 0.00 0.00 0.00 0.00 0.00 0.00 0.00 0.00 0.00 0.00 0.00 0.00 0.00 0.00 0.00 0.00 0.00 0.00 0.00 0.00 0.00 0.00 0.00 0.00 0.00 0.00 0.00 0.00 0.00 0.00 0.00 0.00 0.00 0.00 0.00
0.00 0.00 0.00 0.00 0.00 0.00 0.00 0.00 0.00 0.00 0.00 0.00 0.00 0.00 0.00 0.00 0.00 0.00 0.00 0.00 0.00 0.00 0.00 0.00 0.00 0.00 0.00 0.00 0.00 0.00 0.00 0.00 0.00 0.00 0.00 0.00 0.00 0.00 0.00 0.00 0.00 0.00 0.00 0.00 0.00 0.00 0.00
0.00 0.00 0.00 0.00 0.00 0.00 0.00 0.00 0.00 0.00 0.00 0.00 0.00 0.00 0.00 0.00 0.00 0.00 0.00 0.00 0.00 0.00 0.00 0.00 0.00 0.00 0.00 0.00 0.00 0.00 0.00 0.00 0.00 0.00 0.00 0.00 0.00 0.00 0.00 0.00 0.00 0.00 0.00 0.00 0.00 0.00 0.00
0.00 0.00 0.00 0.00 0.00 0.00 0.00 0.00 0.00 0.00 0.00 0.00 0.00 0.00 0.00 0.00 0.00 0.00 0.00 0.00 0.00 0.00 0.00 0.00 0.00 0.00 0.00 0.00 0.00 0.00 0.00 0.00 0.00 0.00 0.00 0.00 0.00 0.00 0.00 0.00 0.00 0.00 0.00 0.00 0.00 0.00 0.00
0.00 0.00 0.00 0.00 0.00 0.00 0.00 0.00 0.00 0.00 0.00 0.00 0.00 0.00 0.00 0.00 0.00 0.00 0.00 0.00 0.00 0.00 0.00 0.00 0.00 0.00 0.00 0.00 0.00 0.00 0.00 0.00 0.00 0.00 0.00 0.00 0.00 0.00 0.00 0.00 0.00 0.00 0.00 0.00 0.00 0.00 0.00
0.00 0.00 0.00 0.00 0.00 0.00 0.00 0.00 0.00 0.00 0.00 0.00 0.00 0.00 0.00 0.00 0.00 0.00 0.00 0.00 0.00 0.00 0.00 0.00 0.00 0.00 0.00 0.00 0.00 0.00 0.00 0.00 0.00 0.00 0.00 0.00 0.00 0.00 0.00 0.00 0.00 0.00 0.00 0.00 0.00 0.00 0.00
0.00 0.00 0.00 0.00 0.00 0.00 0.00 0.00 0.00 0.00 0.00 0.00 0.00 0.00 0.00 0.00 0.00 0.00 0.00 0.00 0.00 0.00 0.00 0.00 0.00 0.00 0.00 0.00 0.00 0.00 0.00 0.00 0.00 0.00 0.00 0.00 0.00 0.00 0.00 0.00 0.00 0.00 0.00 0.00 0.01 0.00 0.00
0.00 0.00 0.00 0.00 0.00 0.00 0.00 0.00 0.00 0.00 0.00 0.00 0.00 0.00 0.00 0.00 0.00 0.00 0.00 0.00 0.00 0.00 0.00 0.00 0.00 0.00 0.00 0.00 0.00 0.00 0.00 0.00 0.00 0.00 0.00 0.00 0.00 0.00 0.00 0.00 0.00 0.00 0.00 0.00 0.00 0.00 0.01
0.00 0.00 0.00 0.00 0.00 0.00 0.00 0.00 0.00 0.00 0.00 0.00 0.00 0.00 0.00 0.00 0.00 0.00 0.00 0.00 0.00 0.00 0.00 0.00 0.00 0.00 0.00 0.00 0.00 0.00 0.00 0.00 0.00 0.00 0.00 0.00 0.00 0.00 0.00 0.00 0.00 0.00 0.00 0.00 0.01 0.01 0.01
0.00 0.00 0.00 0.00 0.00 0.00 0.00 0.00 0.00 0.00 0.00 0.00 0.00 0.00 0.00 0.00 0.00 0.00 0.00 0.00 0.00 0.00 0.00 0.00 0.00 0.00 0.00 0.00 0.00 0.00 0.00 0.00 0.00 0.00 0.00 0.00 0.00 0.00 0.00 0.00 0.00 0.00 0.00 0.00 0.00 0.01 0.02
0.00 0.00 0.00 0.00 0.00 0.00 0.00 0.00 0.00 0.00 0.00 0.00 0.00 0.00 0.00 0.00 0.00 0.00 0.00 0.00 0.00 0.00 0.00 0.00 0.00 0.00 0.00 0.00 0.00 0.00 0.00 0.00 0.00 0.00 0.00 0.00 0.00 0.00 0.00 0.00 0.00 0.00 0.00 0.00 0.01 0.00 0.00
0.00 0.00 0.00 0.00 0.01 0.01 0.00 0.00 0.00 0.00 0.00 0.00 0.00 0.00 0.00 0.00 0.00 0.00 0.00 0.00 0.00 0.00 0.00 0.00 0.00 0.00 0.00 0.00 0.00 0.00 0.00 0.00 0.00 0.00 0.00 0.00 0.00 0.00 0.00 0.00 0.00 0.00 0.00 0.00 0.00 0.00 0.00
0.01 0.01 0.01 0.00 0.01 0.01 0.00 0.00 0.00 0.00 0.00 0.00 0.00 0.00 0.00 0.00 0.00 0.00 0.00 0.00 0.00 0.00 0.00 0.00 0.00 0.00 0.00 0.01 0.01 0.00 0.01 0.00 0.00 0.00 0.00 0.00 0.00 0.00 0.00 0.00 0.00 0.00 0.00 0.00 0.00 0.00 0.00
0.01 0.00 0.00 0.00 0.00 0.00 0.00 0.00 0.00 0.00 0.00 0.00 0.00 0.00 0.00 0.00 0.00 0.00 0.00 0.00 0.00 0.00 0.00 0.00 0.00 0.00 0.01 0.01 0.01 0.01 0.00 0.01 0.00 0.00 0.00 0.00 0.00 0.00 0.00 0.00 0.00 0.00 0.00 0.00 0.00 0.00 0.00
0.02 0.01 0.01 0.01 0.00 0.00 0.00 0.00 0.00 0.00 0.00 0.00 0.00 0.00 0.00 0.00 0.00 0.00 0.00 0.00 0.00 0.00 0.00 0.00 0.01 0.00 0.01 0.01 0.00 0.00 0.00 0.00 0.00 0.00 0.00 0.00 0.00 0.00 0.00 0.00 0.00 0.00 0.00 0.00 0.00 0.00 0.00
0.01 0.00 0.00 0.00 0.00 0.00 0.00 0.00 0.00 0.00 0.00 0.00 0.00 0.00 0.00 0.00 0.00 0.00 0.00 0.00 0.00 0.00 0.00 0.00 0.00 0.01 0.01 0.00 0.00 0.00 0.00 0.00 0.00 0.00 0.00 0.00 0.00 0.00 0.00 0.00 0.00 0.00 0.00 0.00 0.00 0.00 0.00
0.00 0.00 0.00 0.00 0.00 0.00 0.00 0.00 0.00 0.00 0.00 0.00 0.00 0.00 0.00 0.00 0.00 0.00 0.00 0.00 0.00 0.00 0.00 0.00 0.00 0.00 0.00 0.00 0.00 0.00 0.00 0.00 0.00 0.00 0.00 0.00 0.00 0.00 0.00 0.00 0.00 0.00 0.00 0.00 0.00 0.00 0.00
0.00 0.00 0.00 0.00 0.00 0.00 0.00 0.00 0.00 0.00 0.00 0.00 0.00 0.00 0.00 0.00 0.00 0.01 0.00 0.01 0.01 0.00 0.00 0.00 0.00 0.00 0.00 0.00 0.00 0.00 0.00 0.00 0.00 0.00 0.00 0.00 0.00 0.00 0.01 0.01 0.00 0.00 0.00 0.00 0.00 0.00 0.00
0.00 0.00 0.00 0.00 0.00 0.00 0.00 0.00 0.00 0.00 0.00 0.00 0.00 0.00 0.00 0.00 0.00 0.00 0.00 0.00 0.00 0.00 0.00 0.00 0.00 0.00 0.00 0.00 0.00 0.00 0.00 0.00 0.00 0.00 0.00 0.00 0.00 0.01 0.00 0.02 0.02 0.00 0.00 0.00 0.00 0.00 0.00
0.00 0.00 0.00 0.00 0.00 0.00 0.00 0.00 0.00 0.00 0.00 0.00 0.00 0.00 0.00 0.00 0.00 0.00 0.00 0.00 0.00 0.00 0.00 0.00 0.00 0.00 0.00 0.00 0.00 0.00 0.00 0.00 0.00 0.00 0.00 0.00 0.01 0.03 0.04 0.04 0.02 0.01 0.00 0.00 0.00 0.00 0.00
0.00 0.00 0.00 0.00 0.00 0.00 0.00 0.00 0.00 0.00 0.00 0.00 0.00 0.00 0.00 0.00 0.00 0.00 0.00 0.00 0.00 0.00 0.00 0.00 0.00 0.00 0.00 0.00 0.00 0.00 0.00 0.00 0.00 0.00 0.00 0.01 0.01 0.01 0.02 0.02 0.01 0.00 0.00 0.00 0.00 0.00 0.00
0.00 0.00 0.00 0.00 0.00 0.00 0.00 0.00 0.00 0.00 0.00 0.00 0.00 0.00 0.00 0.00 0.00 0.00 0.00 0.00 0.00 0.00 0.00 0.00 0.00 0.00 0.00 0.00 0.01 0.03 0.03 0.02 0.01 0.00 0.00 0.00 0.01 0.01 0.01 0.00 0.00 0.00 0.00 0.00 0.00 0.00 0.00
MSLP
1016.86 1016.91 1017.22 1017.29 1017.37 1017.56 1017.56 1017.72 1017.58 1017.90 1017.80 1017.83 1017.78 1017.77 1017.36 1017.02 1016.57 1016.06 1015.35 1014.69 1013.89 1013.06 1012.73 1012.34 1011.93 1011.19 1010.10 1008.19 1005.85 1005.92 1006.42 1006.41 1006.17 1006.04 1005.55 1004.81 1004.20 1003.67 1002.90 1002.23 1001.72 1000.81 1000.28 999.86 999.46 999.17 999.03
1016.37 1016.67 1016.84 1017.04 1017.02 1017.32 1017.35 1017.46 1017.43 1017.59 1017.57 1017.63 1017.59 1017.61 1017.30 1016.74 1016.27 1015.82 1015.22 1014.44 1013.60 1012.76 1012.25 1011.96 1011.78 1011.28 1010.06 1007.31 1004.94 1005.02 1005.47 1005.47 1005.50 1005.14 1004.87 1004.44 1003.76 1003.30 1002.73 1002.43 1001.88 1001.32 1000.67 1000.03 999.45 999.27 999.03
1016.09 1016.44 1016.45 1016.85 1016.71 1016.93 1017.10 1016.99 1017.18 1017.34 1017.37 1017.40 1017.37 1017.43 1017.19 1016.54 1016.12 1015.60 1014.99 1014.06 1013.08 1012.17 1011.74 1011.40 1011.60 1010.93 1008.88 1006.12 1004.83 1004.79 1004.87 1004.83 1004.66 1004.25 1003.91 1003.63 1003.35 1003.33 1002.94 1002.50 1001.77 1001.36 1000.97 1000.22 999.54 998.99 998.17
1015.34 1016.02 1016.18 1016.51 1016.49 1016.64 1016.66 1016.72 1016.92 1016.85 1017.10 1017.17 1017.19 1017.25 1017.05 1016.47 1015.97 1015.46 1014.78 1013.65 1012.36 1011.33 1010.98 1010.77 1011.24 1010.42 1007.08 1005.16 1005.01 1004.71 1004.69 1004.02 1004.05 1004.20 1004.19 1003.95 1003.74 1003.46 1003.19 1002.95 1002.38 1001.78 1001.03 999.63 998.73 997.84 996.88
1014.67 1015.29 1015.60 1015.95 1016.09 1016.09 1016.44 1016.51 1016.55 1016.52 1016.71 1016.82 1016.97 1017.06 1016.83 1016.42 1015.96 1015.33 1014.41 1013.13 1011.37 1010.14 1010.08 1010.28 1010.43 1009.17 1006.17 1005.44 1004.87 1004.75 1004.82 1004.18 1003.88 1004.05 1003.90 1003.88 1004.02 1003.56 1003.27 1002.64 1001.72 1000.80 999.58 998.50 997.35 996.76 996.18
1013.91 1014.38 1014.97 1015.34 1015.65 1015.60 1015.95 1016.15 1016.10 1016.33 1016.24 1016.48 1016.66 1016.81 1016.66 1016.17 1015.82 1015.05 1014.11 1012.39 1009.77 1009.18 1008.43 1008.20 1008.67 1008.02 1005.51 1004.74 1004.62 1004.69 1004.41 1004.28 1004.14 1003.93 1003.46 1003.71 1003.70 1002.92 1002.46 1002.07 1000.84 999.82 999.02 998.20 997.25 997.23 996.87
1013.28 1013.81 1014.42 1014.51 1015.01 1015.21 1015.49 1015.68 1015.72 1015.88 1015.94 1016.05 1016.39 1016.49 1016.41 1016.21 1015.80 1014.94 1014.10 1011.45 1010.07 1008.77 1008.94 1008.89 1007.69 1006.75 1005.38 1004.76 1004.65 1003.96 1003.88 1003.87 1003.85 1003.86 1003.46 1003.01 1002.78 1001.81 1001.03 1000.78 1000.46 1000.20 999.69 998.75 998.12 997.82 997.43
1012.61 1013.00 1013.84 1013.97 1014.31 1014.65 1014.86 1015.35 1015.27 1015.36 1015.70 1015.68 1015.98 1016.13 1016.18 1016.04 1015.68 1015.00 1014.26 1012.56 1012.46 1012.52 1009.41 1007.84 1006.50 1005.92 1005.29 1005.45 1004.79 1003.66 1003.99 1003.53 1003.14 1002.96 1002.58 1002.32 1001.39 1000.98 1000.84 1000.60 1000.44 1000.31 999.74 999.03 998.28 998.08 998.12
1011.96 1012.18 1013.02 1013.55 1013.76 1013.94 1014.25 1014.73 1014.89 1014.99 1015.23 1015.47 1015.67 1015.88 1016.00 1015.83 1015.50 1014.84 1013.35 1012.79 1012.46 1012.43 1010.58 1005.81 1004.47 1004.57 1004.78 1005.39 1004.18 1003.08 1003.61 1002.92 1002.67 1002.23 1001.79 1001.15 1000.23 1000.24 1000.17 1000.20 1000.10 1000.31 999.98 999.46 998.97 998.54 997.86
1011.19 1011.46 1012.26 1012.91 1013.08 1013.43 1013.69 1013.91 1014.23 1014.56 1014.77 1015.05 1015.44 1015.76 1015.78 1015.68 1015.78 1014.11 1013.01 1012.80 1012.69 1012.95 1010.52 1005.47 1004.47 1004.22 1004.84 1004.97 1003.94 1003.26 1003.39 1003.54 1002.98 1002.29 1001.79 1001.21 1000.49 1000.28 1000.36 1000.31 1000.50 1000.15 1000.46 1000.04 999.92 999.94 998.13
1010.29 1010.85 1011.64 1012.10 1012.43 1012.79 1013.34 1013.03 1013.73 1014.12 1014.28 1014.67 1015.03 1015.48 1015.61 1015.46 1015.25 1013.98 1013.62 1013.27 1012.96 1012.81 1009.43 1004.66 1004.54 1004.73 1004.29 1004.47 1003.63 1002.94 1003.05 1003.01 1003.12 1002.83 1002.72 1001.32 1000.88 1000.54 1000.08 999.91 1000.03 1000.21 1001.12 1001.53 1001.72 1001.32 1000.61
1009.39 1010.13 1010.93 1011.25 1011.64 1012.21 1012.63 1012.57 1013.23 1013.67 1014.03 1014.38 1014.86 1015.47 1015.65 1015.57 1015.12 1014.21 1013.72 1013.76 1013.19 1012.17 1008.15 1004.45 1004.17 1004.26 1004.32 1003.86 1003.27 1002.50 1002.44 1002.49 1002.63 1002.85 1002.98 1002.10 1001.74 1001.24 1000.36 1000.40 1000.92 1001.55 1002.05 1002.38 1002.51 1003.09 1001.59
1008.48 1009.33 1010.10 1010.57 1010.81 1011.50 1011.76 1012.06 1012.71 1013.21 1013.55 1014.06 1014.55 1014.93 1015.25 1014.43 1014.22 1013.74 1013.97 1013.80 1013.24 1010.85 1006.64 1004.58 1004.25 1004.13 1004.07 1003.66 1003.24 1003.03 1002.70 1002.89 1003.04 1002.77 1002.64 1002.10 1001.55 1000.87 1000.94 1001.07 1001.61 1002.44 1003.22 1003.62 1003.06 1002.11 1001.40
1007.77 1008.42 1009.13 1009.67 1010.17 1010.54 1011.05 1011.37 1012.11 1012.62 1013.12 1013.59 1014.05 1014.52 1014.66 1014.51 1014.28 1014.65 1014.74 1014.71 1013.26 1010.28 1008.15 1005.81 1005.84 1005.29 1004.94 1004.55 1004.09 1003.77 1004.03 1003.93 1003.54 1004.27 1004.75 1003.97 1002.87 1002.74 1002.65 1003.08 1003.66 1004.03 1004.42 1005.28 1004.86 1003.85 1002.72
1006.87 1007.55 1008.22 1008.89 1009.42 1009.69 1010.36 1010.62 1011.40 1011.90 1012.51 1013.06 1013.79 1014.50 1014.78 1014.67 1014.61 1015.01 1015.26 1014.50 1011.85 1010.66 1009.25 1008.45 1007.41 1006.33 1005.78 1005.56 1005.93 1005.55 1005.08 1004.99 1006.00 1006.60 1006.84 1006.07 1004.73 1004.41 1004.48 1004.81 1005.20 1005.03 1005.75 1006.35 1007.09 1006.12 1005.48
1006.03 1006.78 1007.44 1008.01 1008.58 1008.89 1009.42 1009.90 1010.59 1011.16 1011.80 1012.68 1013.57 1014.44 1014.82 1014.67 1015.08 1015.53 1015.75 1013.75 1012.25 1011.01 1010.29 1010.07 1009.70 1009.23 1008.45 1008.07 1008.26 1007.60 1006.74 1007.27 1007.89 1008.43 1008.69 1008.20 1007.35 1005.92 1005.57 1006.18 1006.05 1006.20 1006.42 1007.30 1008.32 1007.48 1005.88
1005.28 1005.99 1006.60 1007.16 1007.68 1008.17 1008.52 1009.08 1009.80 1010.52 1011.07 1011.97 1013.21 1014.40 1015.06 1014.99 1015.46 1016.03 1015.07 1013.77 1012.44 1011.55 1011.47 1011.71 1010.99 1010.76 1010.41 1010.25 1009.82 1009.31 1008.94 1008.69 1009.36 1009.57 1009.70 1009.85 1009.57 1007.83 1007.50 1007.09 1006.52 1006.68 1007.28 1008.42 1009.03 1008.49 1007.50
1004.57 1005.29 1005.74 1006.31 1006.93 1007.46 1007.89 1008.46 1009.10 1009.83 1010.77 1011.80 1012.98 1014.44 1015.15 1015.23 1015.89 1015.74 1014.70 1013.67 1013.15 1012.43 1012.84 1012.75 1012.60 1012.12 1011.79 1011.57 1011.21 1010.72 1010.00 1009.87 1010.31 1010.31 1010.41 1011.05 1010.74 1009.17 1008.06 1007.82 1007.46 1007.56 1007.55 1008.31 1009.20 1009.26 1009.17
1003.74 1004.42 1005.13 1005.65 1006.15 1006.54 1006.96 1007.59 1008.07 1009.26 1009.65 1011.30 1012.83 1014.53 1015.35 1015.34 1015.31 1015.24 1014.94 1014.15 1013.73 1013.42 1013.19 1013.13 1012.86 1012.71 1012.72 1012.70 1012.74 1011.88 1011.12 1010.91 1011.23 1011.12 1011.08 1011.58 1011.49 1010.54 1008.32 1007.43 1008.09 1008.11 1008.18 1008.79 1009.73 1010.12 1009.54
1002.71 1003.42 1004.31 1004.72 1005.24 1005.77 1006.02 1006.38 1007.07 1008.15 1009.03 1010.25 1012.73 1014.31 1015.26 1015.19 1015.08 1014.45 1014.40 1014.13 1013.91 1013.75 1013.61 1013.46 1013.43 1013.39 1013.48 1013.10 1012.92 1012.28 1012.02 1011.98 1012.13 1012.07 1012.71 1012.85 1012.41 1012.06 1010.77 1009.79 1009.81 1009.77 1009.64 1009.95 1010.45 1010.50 1010.19
1001.69 1002.82 1003.32 1003.75 1004.43 1004.59 1005.52 1005.55 1006.25 1007.26 1008.44 1009.79 1011.75 1012.42 1013.04 1014.06 1014.13 1014.32 1014.12 1013.79 1013.77 1013.98 1014.18 1013.94 1013.77 1013.36 1013.15 1012.98 1012.63 1012.22 1012.17 1012.51 1012.50 1012.64 1013.05 1013.30 1012.47 1012.40 1011.59 1011.33 1010.98 1010.55 1010.23 1010.47 1010.57 1010.44 1010.08
1001.57 1002.42 1002.99 1003.48 1003.79 1004.72 1004.77 1005.36 1006.09 1007.25 1008.23 1009.71 1011.54 1012.61 1013.11 1013.37 1013.29 1013.70 1013.85 1013.54 1013.52 1013.64 1013.71 1013.62 1013.40 1013.16 1013.04 1012.69 1012.20 1012.36 1012.17 1012.37 1012.10 1012.08 1012.36 1012.66 1012.42 1012.64 1011.85 1012.09 1011.68 1010.83 1010.59 1010.16 1009.71 1009.26 1008.96
1001.23 1001.80 1002.44 1002.87 1003.84 1004.35 1004.49 1005.00 1006.06 1006.81 1007.56 1009.98 1011.33 1011.87 1011.29 1012.64 1013.27 1013.45 1013.14 1012.69 1012.69 1012.87 1013.19 1013.23 1013.23 1013.16 1012.82 1012.75 1012.55 1012.39 1012.18 1012.14 1012.01 1012.00 1012.22 1012.33 1012.38 1012.73 1011.79 1012.12 1011.56 1010.55 1010.14 1009.41 1008.61 1008.44 1008.60
1001.76 1002.39 1002.74 1003.69 1004.43 1004.83 1005.43 1005.63 1006.77 1007.38 1007.25 1008.42 1009.95 1010.69 1011.42 1012.26 1012.17 1012.27 1012.27 1012.44 1012.46 1012.62 1012.86 1012.90 1013.12 1013.16 1013.19 1012.89 1012.79 1012.68 1012.53 1012.39 1012.29 1012.10 1012.25 1012.32 1012.62 1012.87 1012.52 1012.38 1011.03 1009.85 1009.22 1008.30 1008.27 1008.98 1009.09
1002.31 1002.64 1003.68 1004.62 1005.19 1005.36 1006.14 1006.85 1007.34 1007.54 1007.71 1008.32 1009.65 1009.91 1010.66 1010.75 1011.01 1011.29 1011.48 1011.75 1012.08 1012.47 1012.73 1012.67 1012.51 1013.01 1012.98 1013.27 1013.52 1012.99 1012.12 1011.59 1010.98 1010.88 1011.13 1011.75 1012.28 1012.49 1012.46 1011.70 1010.69 1009.91 1008.89 1009.39 1009.33 1009.73 1011.32
1003.11 1003.66 1004.67 1005.77 1006.27 1006.65 1007.00 1007.58 1007.66 1007.83 1008.56 1008.71 1009.47 1009.50 1009.86 1009.73 1009.95 1009.98 1010.29 1010.92 1011.16 1011.61 1011.93 1012.02 1012.76 1013.15 1013.39 1013.77 1013.81 1013.45 1012.26 1010.99 1010.38 1009.51 1009.67 1010.25 1010.89 1012.07 1012.38 1011.62 1010.58 1009.67 1010.30 1010.64 1009.99 1010.41 1011.83
1003.86 1004.57 1005.17 1006.34 1007.26 1007.43 1007.73 1007.80 1007.79 1008.41 1008.78 1008.79 1009.46 1009.77 1009.47 1009.30 1009.36 1009.06 1009.65 1009.89 1009.98 1010.40 1010.88 1011.37 1012.49 1013.48 1013.76 1014.02 1013.99 1013.39 1012.54 1011.92 1010.94 1010.13 1010.02 1009.96 1010.35 1011.19 1011.57 1011.36 1010.64 1010.70 1010.84 1010.39 1010.71 1012.29 1012.14
1004.70 1005.16 1005.54 1007.19 1007.83 1008.06 1008.16 1008.08 1008.26 1008.42 1008.76 1008.72 1009.84 1009.96 1009.82 1009.21 1010.18 1010.20 1010.53 1010.45 1010.44 1010.74 1010.90 1011.64 1012.70 1013.02 1013.49 1013.96 1013.70 1013.12 1012.15 1011.30 1010.63 1010.29 1010.36 1010.43 1010.84 1010.97 1011.05 1010.92 1010.43 1010.36 1010.91 1011.78 1012.17 1011.98 1012.59
1005.34 1005.88 1006.61 1007.31 1008.18 1008.42 1008.46 1008.72 1008.62 1008.95 1009.14 1009.43 1009.89 1010.39 1009.55 1009.48 1011.05 1011.17 1011.52 1011.41 1011.60 1011.63 1011.46 1011.79 1012.32 1012.59 1013.09 1013.22 1013.34 1013.24 1012.61 1012.12 1011.45 1011.04 1010.57 1010.55 1010.87 1011.14 1011.55 1010.57 1010.14 1010.02 1011.26 1011.52 1011.65 1012.21 1012.41
Thickness
5677 5680 5680 5682 5681 5681 5681 5679 5681 5677 5676 5674 5673 5670 5671 5672 5674 5676 5679 5684 5689 5695 5695 5696 5699 5703 5711 5715 5724 5739 5736 5738 5740 5740 5737 5737 5734 5735 5731 5743 5748 5747 5756 5767 5773 5773 5770
5674 5675 5676 5676 5677 5676 5676 5675 5676 5674 5672 5669 5668 5665 5665 5668 5670 5671 5673 5679 5685 5690 5693 5693 5694 5697 5702 5700 5743 5742 5739 5738 5737 5738 5735 5737 5735 5742 5738 5735 5735 5745 5749 5754 5763 5759 5761
5667 5669 5672 5670 5674 5672 5671 5674 5672 5669 5668 5666 5664 5660 5660 5664 5666 5667 5669 5675 5684 5689 5691 5692 5689 5695 5699 5711 5739 5738 5737 5734 5739 5739 5734 5743 5744 5734 5736 5727 5744 5742 5726 5739 5749 5753 5754
5666 5663 5665 5665 5668 5668 5668 5669 5667 5668 5663 5662 5659 5657 5656 5660 5663 5664 5665 5673 5683 5691 5692 5691 5687 5690 5703 5732 5733 5732 5733 5735 5739 5737 5733 5737 5738 5731 5725 5729 5724 5718 5721 5712 5747 5756 5764
5664 5660 5662 5662 5664 5666 5663 5663 5663 5663 5660 5658 5655 5653 5653 5655 5657 5659 5663 5671 5687 5695 5695 5689 5687 5691 5698 5727 5719 5726 5727 5722 5729 5728 5731 5732 5724 5718 5719 5707 5706 5722 5707 5722 5737 5762 5757
5663 5661 5659 5660 5660 5662 5659 5659 5660 5657 5658 5654 5651 5649 5648 5650 5652 5656 5661 5672 5694 5697 5706 5698 5694 5685 5711 5709 5717 5719 5726 5724 5716 5717 5718 5714 5709 5708 5711 5702 5686 5707 5714 5724 5725 5740 5742
5658 5656 5656 5660 5657 5657 5656 5656 5656 5654 5653 5651 5647 5646 5644 5644 5645 5650 5655 5673 5673 5684 5686 5672 5684 5688 5699 5715 5718 5717 5722 5717 5714 5707 5693 5708 5696 5698 5713 5718 5716 5710 5703 5704 5720 5731 5722
5654 5655 5650 5655 5655 5653 5653 5649 5652 5651 5647 5647 5644 5641 5639 5638 5640 5645 5646 5652 5646 5649 5669 5681 5691 5692 5702 5701 5692 5711 5717 5705 5704 5694 5706 5700 5694 5711 5715 5713 5706 5699 5695 5697 5711 5721 5708
5650 5654 5649 5649 5649 5650 5650 5647 5647 5646 5643 5642 5639 5636 5634 5634 5635 5640 5648 5644 5646 5644 5649 5695 5704 5698 5695 5692 5693 5705 5707 5708 5699 5697 5701 5696 5712 5717 5708 5699 5694 5688 5686 5688 5688 5702 5710
5646 5649 5646 5644 5645 5645 5646 5647 5644 5641 5640 5637 5633 5630 5629 5629 5627 5637 5640 5641 5638 5634 5635 5685 5689 5692 5689 5687 5684 5706 5708 5696 5692 5687 5695 5694 5710 5700 5690 5683 5684 5669 5688 5685 5678 5669 5672
5644 5643 5641 5642 5642 5642 5639 5645 5639 5636 5636 5632 5629 5625 5622 5624 5623 5626 5631 5631 5631 5626 5619 5688 5684 5694 5692 5678 5686 5689 5707 5695 5675 5677 5679 5683 5687 5685 5681 5683 5684 5671 5672 5658 5654 5646 5647
5640 5638 5637 5639 5640 5638 5636 5639 5634 5632 5629 5627 5622 5617 5614 5614 5615 5619 5621 5620 5619 5611 5613 5673 5681 5674 5672 5679 5683 5692 5687 5692 5685 5667 5666 5672 5682 5677 5678 5679 5669 5662 5648 5640 5639 5622 5611
5636 5634 5632 5634 5637 5634 5634 5634 5630 5627 5626 5622 5617 5614 5611 5613 5611 5615 5609 5608 5598 5600 5669 5667 5664 5673 5667 5667 5669 5669 5668 5663 5653 5644 5650 5663 5661 5672 5668 5653 5651 5637 5619 5592 5600 5608 5602
5631 5632 5631 5632 5632 5633 5630 5631 5626 5623 5621 5617 5612 5607 5607 5605 5603 5599 5596 5587 5576 5615 5635 5666 5653 5652 5643 5655 5654 5655 5645 5642 5654 5638 5624 5621 5622 5633 5638 5624 5612 5608 5600 5574 5563 5587 5599
5626 5627 5628 5629 5629 5631 5628 5629 5623 5620 5617 5612 5604 5598 5595 5595 5594 5589 5582 5574 5598 5607 5624 5623 5634 5633 5636 5640 5627 5630 5631 5630 5614 5611 5600 5598 5609 5620 5616 5607 5601 5594 5574 5576 5541 5558 5547
5621 5621 5623 5626 5625 5628 5627 5625 5622 5617 5613 5605 5597 5588 5584 5586 5582 5575 5566 5582 5592 5610 5611 5607 5595 5601 5595 5606 5593 5602 5609 5603 5591 5587 5586 5580 5573 5598 5599 5586 5585 5576 5576 5547 5529 5525 5532
5616 5618 5620 5622 5623 5624 5624 5622 5618 5613 5608 5599 5588 5583 5571 5573 5569 5559 5570 5581 5590 5598 5592 5583 5587 5583 5582 5578 5581 5586 5577 5583 5574 5571 5567 5557 5552 5571 5567 5560 5560 5555 5545 5527 5521 5523 5512
5612 5615 5618 5619 5618 5619 5620 5617 5613 5608 5599 5590 5580 5580 5560 5561 5556 5552 5569 5576 5579 5581 5569 5565 5564 5566 5564 5563 5559 5563 5565 5564 5561 5558 5550 5540 5536 5542 5553 5551 5548 5540 5534 5529 5500 5502 5489
5610 5612 5613 5614 5614 5616 5616 5613 5610 5601 5597 5583 5570 5554 5548 5548 5553 5545 5546 5556 5556 5557 5558 5551 5550 5551 5549 5542 5535 5540 5546 5546 5539 5535 5531 5525 5516 5511 5546 5543 5527 5518 5518 5512 5497 5484 5475
5608 5608 5608 5610 5611 5612 5612 5610 5607 5600 5593 5582 5557 5548 5536 5539 5533 5550 5543 5539 5540 5540 5537 5538 5532 5528 5523 5524 5523 5519 5518 5522 5517 5512 5494 5489 5495 5491 5496 5511 5497 5487 5491 5485 5470 5446 5447
5607 5600 5605 5604 5604 5605 5601 5604 5603 5594 5584 5571 5557 5553 5551 5537 5532 5529 5535 5530 5532 5527 5517 5518 5511 5517 5517 5510 5512 5510 5510 5494 5498 5489 5482 5472 5469 5474 5484 5480 5477 5474 5471 5461 5450 5453 5437
5596 5596 5594 5593 5597 5593 5598 5590 5591 5579 5574 5556 5543 5537 5530 5524 5529 5519 5513 5521 5523 5516 5508 5506 5506 5506 5507 5499 5508 5490 5493 5480 5481 5482 5474 5468 5454 5451 5448 5451 5447 5446 5445 5449 5448 5454 5454
5584 5587 5588 5587 5582 5584 5585 5581 5577 5573 5569 5546 5535 5529 5537 5514 5508 5509 5514 5519 5514 5507 5498 5496 5493 5484 5487 5483 5485 5484 5481 5477 5473 5465 5456 5450 5439 5428 5428 5437 5427 5422 5435 5440 5449 5449 5451
5570 5570 5573 5569 5565 5567 5565 5568 5562 5558 5562 5551 5536 5527 5519 5515 5509 5509 5503 5503 5498 5492 5485 5482 5477 5464 5466 5471 5466 5462 5459 5455 5449 5447 5439 5426 5419 5411 5399 5409 5386 5434 5445 5451 5439 5433 5431
5554 5556 5552 5548 5549 5551 5547 5546 5545 5545 5545 5538 5525 5521 5511 5512 5507 5502 5499 5493 5484 5475 5465 5465 5468 5459 5456 5447 5433 5431 5442 5439 5442 5440 5431 5423 5410 5396 5385 5394 5404 5418 5432 5409 5409 5414 5381
5539 5539 5534 5527 5526 5529 5530 5527 5530 5529 5523 5521 5512 5510 5507 5504 5501 5502 5493 5487 5478 5469 5465 5461 5449 5442 5432 5421 5413 5397 5409 5431 5425 5436 5432 5420 5403 5383 5380 5370 5375 5415 5399 5391 5406 5399 5377
5521 5519 5519 5511 5508 5511 5512 5513 5515 5510 5506 5506 5499 5494 5497 5493 5496 5497 5489 5482 5480 5471 5460 5451 5436 5417 5410 5396 5386 5389 5393 5409 5401 5403 5409 5412 5409 5378 5369 5362 5380 5379 5382 5391 5378 5369 5362
5507 5506 5505 5495 5493 5495 5497 5499 5497 5496 5493 5494 5481 5475 5475 5482 5466 5464 5457 5457 5453 5445 5433 5421 5407 5401 5390 5376 5377 5384 5384 5395 5392 5396 5387 5385 5378 5373 5377 5364 5353 5383 5373 5354 5357 5363 5359
5490 5494 5488 5486 5484 5483 5482 5480 5481 5480 5478 5472 5463 5457 5462 5464 5444 5441 5432 5429 5423 5417 5410 5402 5395 5384 5377 5370 5367 5364 5365 5366 5369 5357 5385 5370 5373 5359 5356 5364 5380 5378 5347 5357 5360 5353 5355